2023/02/05 00:00:00,90.5,-0.7
2023/02/05 00:10:00,90.4,-0.6
2023/02/05 00:20:00,90.2,-0.6
2023/02/05 00:30:00,90.0,-0.5
2023/02/05 00:40:00,89.9,-0.6
2023/02/05 00:50:00,89.8,-0.5
2023/02/05 01:00:00,89.8,-0.9
2023/02/05 01:10:00,89.8,-0.9
2023/02/05 01:20:00,89.7,-0.8
2023/02/05 01:30:00,89.7,-1.0
2023/02/05 01:40:00,89.7,-1.1
2023/02/05 01:50:00,89.7,-1.0
2023/02/05 02:00:00,89.7,-1.0
2023/02/05 02:10:00,89.7,-0.9
2023/02/05 02:20:00,89.7,-0.8
2023/02/05 02:30:00,89.9,-0.8
2023/02/05 02:40:00,89.9,-0.9
2023/02/05 02:50:00,89.9,-0.9
2023/02/05 03:00:00,89.8,-0.9
2023/02/05 03:10:00,89.7,-1.1
2023/02/05 03:20:00,89.7,-1.4
2023/02/05 03:30:00,89.7,-1.1
2023/02/05 03:40:00,89.7,-1.1
2023/02/05 03:50:00,89.7,-1.1
2023/02/05 04:00:00,89.6,-1.0
2023/02/05 04:10:00,89.5,-1.1
2023/02/05 04:20:00,89.4,-1.1
2023/02/05 04:30:00,89.4,-0.9
2023/02/05 04:40:00,89.3,-0.9
2023/02/05 04:50:00,89.2,-1.1
2023/02/05 05:00:00,89.2,-1.1
2023/02/05 05:10:00,89.2,-1.2
2023/02/05 05:20:00,89.2,-1.1
2023/02/05 05:30:00,89.1,-1.1
2023/02/05 05:40:00,89.2,-1.1
2023/02/05 05:50:00,89.2,-1.2
2023/02/05 06:00:00,89.2,-1.0
2023/02/05 06:10:00,89.1,-1.0
2023/02/05 06:20:00,89.0,-0.9
2023/02/05 06:30:00,89.0,-0.8
2023/02/05 06:40:00,89.0,-0.8
2023/02/05 06:50:00,89.0,-0.9
2023/02/05 07:00:00,89.0,-0.9
2023/02/05 07:10:00,89.0,-1.1
2023/02/05 07:20:00,89.0,-0.9
2023/02/05 07:30:00,89.0,-0.8
2023/02/05 07:40:00,89.0,-0.7
2023/02/05 07:50:00,88.9,-0.3
2023/02/05 08:00:00,88.9, 0.0
2023/02/05 08:10:00,89.0,-0.1
2023/02/05 08:20:00,89.0, 0.2
2023/02/05 08:30:00,89.1, 0.3
2023/02/05 08:40:00,89.1, 0.7
2023/02/05 08:50:00,89.0, 0.6
2023/02/05 09:00:00,88.9, 0.6
2023/02/05 09:10:00,88.8, 0.3
2023/02/05 09:20:00,88.9, 1.1
2023/02/05 09:30:00,89.0, 1.4
2023/02/05 09:40:00,89.0, 1.6
2023/02/05 09:50:00,89.0, 1.7
2023/02/05 10:00:00,88.9, 1.9
2023/02/05 10:10:00,88.8, 2.3
2023/02/05 10:20:00,88.8, 2.2
2023/02/05 10:30:00,88.7, 1.8
2023/02/05 10:40:00,88.6, 2.4
2023/02/05 10:50:00,88.7, 3.2
2023/02/05 11:00:00,88.8, 3.5
2023/02/05 11:10:00,88.6, 3.7
2023/02/05 11:20:00,88.7, 3.7
2023/02/05 11:30:00,88.7, 3.9
2023/02/05 11:40:00,88.7, 4.2
2023/02/05 11:50:00,88.8, 4.2
2023/02/05 12:00:00,88.8, 5.3
2023/02/05 12:10:00,88.7, 4.8
2023/02/05 12:20:00,88.5, 4.9
2023/02/05 12:30:00,88.3, 4.3
2023/02/05 12:40:00,88.2, 3.9
2023/02/05 12:50:00,88.1, 4.1
2023/02/05 13:00:00,88.0, 4.2
2023/02/05 13:10:00,87.9, 4.6
2023/02/05 13:20:00,87.8, 4.6
2023/02/05 13:30:00,87.8, 4.4
2023/02/05 13:40:00,87.7, 4.4
2023/02/05 13:50:00,87.7, 4.6
2023/02/05 14:00:00,31.4, 6.2
2023/02/05 14:10:00,31.5, 8.1
2023/02/05 14:20:00,31.5, 7.1
2023/02/05 14:30:00,31.4, 9.0
2023/02/05 14:40:00,30.5, 8.7
2023/02/05 14:50:00,30.0, 8.5
2023/02/05 15:00:00,29.8, 7.1
2023/02/05 15:10:00,29.4, 7.6
2023/02/05 15:20:00,29.0, 8.3
2023/02/05 15:30:00,28.6, 9.3
2023/02/05 15:40:00,27.9, 7.8
2023/02/05 15:50:00,82.4, 6.2
2023/02/05 16:00:00,80.3, 4.3
2023/02/05 16:10:00,79.4, 3.0
2023/02/05 16:20:00,79.5, 2.7
2023/02/05 16:30:00,79.5, 2.2
2023/02/05 16:40:00,79.5, 1.8
2023/02/05 16:50:00,79.4, 1.5
2023/02/05 17:00:00,79.3, 1.4
2023/02/05 17:10:00,79.3, 0.9
2023/02/05 17:20:00,79.3, 0.7
2023/02/05 17:30:00,79.1, 0.2
2023/02/05 17:40:00,79.1,-0.1
2023/02/05 17:50:00,79.1,-0.4
2023/02/05 18:00:00,79.1,-0.5
2023/02/05 18:10:00,79.2,-0.7
2023/02/05 18:20:00,79.2,-0.8
2023/02/05 18:30:00,79.1,-1.0
2023/02/05 18:40:00,79.1,-1.2
2023/02/05 18:50:00,79.0,-1.2
2023/02/05 19:00:00,79.0,-1.6
2023/02/05 19:10:00,78.9,-1.5
2023/02/05 19:20:00,78.9,-1.6
2023/02/05 19:30:00,78.9,-1.7
2023/02/05 19:40:00,78.8,-1.8
2023/02/05 19:50:00,78.8,-1.9
2023/02/05 20:00:00,78.8,-1.9
2023/02/05 20:10:00,78.8,-1.8
2023/02/05 20:20:00,78.8,-2.3
2023/02/05 20:30:00,78.9,-2.1
2023/02/05 20:40:00,79.0,-1.9
2023/02/05 20:50:00,78.9,-2.0
2023/02/05 21:00:00,78.9,-2.1
2023/02/05 21:10:00,78.9,-2.2
2023/02/05 21:20:00,78.9,-2.2
2023/02/05 21:30:00,79.0,-2.0
2023/02/05 21:40:00,78.9,-2.1
2023/02/05 21:50:00,78.9,-2.1
2023/02/05 22:00:00,78.9,-2.1
2023/02/05 22:10:00,78.9,-2.2
2023/02/05 22:20:00,78.9,-2.3
2023/02/05 22:30:00,78.9,-2.2
2023/02/05 22:40:00,78.9,-2.2
2023/02/05 22:50:00,78.9,-2.3
2023/02/05 23:00:00,78.9,-2.3
2023/02/05 23:10:00,78.9,-2.3
2023/02/05 23:20:00,78.9,-2.4
2023/02/05 23:30:00,78.9,-2.4
2023/02/05 23:40:00,78.9,-2.1
2023/02/05 23:50:00,78.9,-2.4
